Weather in Korolenko

Russia / Udmurt Republic     56°25′17″N   51°46′23″E
В апреле 2022 года жителям России запретили посещать сайт meteo.paraplan.net по решению Генеральной прокуратуры. Аудитория сайта уменьшилась в 10 раз. Владельцы сайта не видят смысла в поддержке погодного сервера в таких условиях. Сайт будет закрыт в октябре.
temp.,
°C
wind,
m/s
gust,
m/s
humid.,
%
clouds,
%
prec.,
mm/h
press.,
hPa
HPBL,
m
25 september, sun
sun2501:00+10w1187100 0.0 100920
04:00+8nw119148 0.0 101110
07:00+9nw1282100 0.0 100974
10:00+12nnw2269100 0.0 1008389
13:00+13nw4565100 0.0 1006764
16:00+10wnw51196100 10.0 1001627
19:00+11nne21098100 21.8 996830
22:00+8sw71195100 29.9 997693
26 september, mon
mon2601:00+7sw61191100 0.1 1000929
04:00+8ssw4990100 0.2 1003819
07:00+7s3593100 0.1 1005329
10:00+9se3692100 0.1 1007395
13:00+11se3479100 0.4 1008725
16:00+11ese2381100 1.7 1009608
19:00+7ene51093100 1.5 1011450
22:00+4ene4994100 3.6 1013388
27 september, tue
tue2701:00+4ene3695100 1.8 1014387
04:00+4ene3694100 2.0 1015408
07:00+3ene3696100 0.0 1016439
10:00+3ene3595100 0.1 1018494
13:00+5e2383100 0.0 1019601
16:00+5e2475100 0.0 1019614
19:00+4ese127797 0.0 102063
22:00+3e377497 0.0 1021285
28 september, wed
wed2801:00+3e377798 0.0 1021289
04:00+2ene378149 0.0 1022286
07:00−1e39915 0.0 1023282
10:00+4e58605 0.0 1023658
13:00+7e57465 0.0 10231057
16:00+7e5849100 0.0 10231241
19:00+4e5125898 0.0 1023685
22:00+2e61370100 0.0 1024630
29 september, thu
thu2901:00+1e61374100 0.0 1024573
04:000e61372100 0.0 1024562
07:000e61570100 0.0 1023578
10:00+2e7156399 0.0 1023626
13:00+5e7135993 0.0 1024879
16:00+7e6115368 0.0 1024997
19:00+4e513518 0.0 1026734
22:00+2e615565 0.0 1027597